Location: Cactus School
(34.5700°N, 118.0931°W)
Time: 07:36:58
(UTC-07:00)

Vanguard 1 Rocket - Pass Details

Date: 22 April 2024
Orbit: 650 x 4220 km, 34.3° (Epoch: 22 May)

Event Time Altitude Azimuth Distance (km) Brightness Sun altitude
Rises 21:07:32 0° 275° (W) 3,232 11.4 -19.1°
Reaches altitude 10° 21:09:30 10° 274° (W) 2,472 10.5 -19.4°
Maximum altitude 21:15:11 85° 187° (S) 1,185 7.8 -20.4°
Enters shadow 21:20:33 28° 101° (E) 2,610 9.2 -21.3°
